Total_Precipitation_Accumulation
0.00 0.00 0.00 0.00 0.00 0.00 0.00 0.00 0.00 0.00 0.00 0.00 0.00 0.00 0.00 0.00 0.00 0.00 0.00 0.00 0.00 0.00 0.00 0.00 0.00 0.00 0.00 0.00 0.00 0.00 0.00 0.00 0.00 0.00 0.02 0.05 0.07 0.08 0.07 0.08 0.09 0.09 0.07 0.05 0.03 0.04 0.05 0.04 0.03 0.02 0.03 0.02 0.03 0.10 0.12 0.11 0.08 0.03 0.04 0.04 0.06 0.09 0.09 0.06 0.05 0.05 0.04 0.02 0.02 0.05 0.10 0.19 0.28 0.30 0.17 0.10 0.08 0.11 0.05 0.03 0.03 0.03 0.04 0.04 0.03 0.01 0.00 0.00 0.00 0.00 0.00 0.00 0.00 0.00 0.00 0.00 0.00 0.00 0.00 0.00 0.00 0.00 0.00
0.00 0.00 0.00 0.00 0.00 0.00 0.00 0.00 0.00 0.00 0.00 0.00 0.00 0.00 0.00 0.00 0.00 0.00 0.00 0.00 0.00 0.00 0.00 0.00 0.00 0.00 0.00 0.00 0.00 0.00 0.00 0.00 0.00 0.00 0.04 0.07 0.08 0.07 0.07 0.08 0.08 0.09 0.08 0.07 0.06 0.08 0.09 0.08 0.06 0.05 0.05 0.04 0.05 0.10 0.13 0.13 0.12 0.11 0.11 0.11 0.09 0.08 0.06 0.03 0.02 0.02 0.01 0.01 0.00 0.01 0.01 0.03 0.07 0.14 0.23 0.25 0.24 0.22 0.13 0.10 0.08 0.03 0.04 0.03 0.02 0.01 0.00 0.00 0.00 0.00 0.00 0.00 0.00 0.00 0.00 0.00 0.00 0.00 0.00 0.00 0.00 0.00 0.00
0.00 0.00 0.00 0.00 0.00 0.00 0.00 0.00 0.00 0.00 0.00 0.00 0.00 0.00 0.00 0.00 0.00 0.00 0.00 0.00 0.00 0.00 0.00 0.00 0.00 0.00 0.00 0.00 0.00 0.00 0.00 0.00 0.00 0.00 0.02 0.04 0.05 0.07 0.08 0.08 0.09 0.08 0.08 0.08 0.08 0.09 0.11 0.09 0.07 0.07 0.04 0.03 0.05 0.09 0.10 0.11 0.13 0.16 0.16 0.15 0.13 0.12 0.10 0.09 0.08 0.06 0.05 0.03 0.03 0.02 0.01 0.00 0.00 0.01 0.04 0.06 0.08 0.12 0.17 0.14 0.09 0.09 0.06 0.02 0.01 0.02 0.03 0.01 0.00 0.00 0.00 0.00 0.00 0.00 0.00 0.00 0.00 0.00 0.00 0.00 0.00 0.00 0.00
0.00 0.00 0.00 0.00 0.00 0.00 0.00 0.00 0.00 0.00 0.00 0.00 0.00 0.00 0.00 0.00 0.00 0.00 0.00 0.00 0.00 0.00 0.00 0.00 0.00 0.00 0.00 0.00 0.00 0.00 0.00 0.00 0.00 0.00 0.00 0.02 0.04 0.06 0.07 0.08 0.08 0.08 0.06 0.07 0.08 0.08 0.09 0.11 0.13 0.13 0.13 0.12 0.11 0.10 0.11 0.12 0.15 0.20 0.21 0.22 0.22 0.19 0.18 0.15 0.13 0.12 0.10 0.08 0.07 0.07 0.03 0.01 0.01 0.03 0.01 0.00 0.01 0.01 0.03 0.07 0.10 0.05 0.03 0.02 0.02 0.04 0.04 0.05 0.05 0.00 0.00 0.00 0.00 0.00 0.00 0.00 0.00 0.00 0.00 0.00 0.00 0.00 0.00
0.00 0.00 0.00 0.00 0.00 0.00 0.00 0.00 0.00 0.00 0.00 0.00 0.00 0.00 0.00 0.00 0.00 0.00 0.00 0.00 0.00 0.00 0.00 0.00 0.00 0.00 0.00 0.00 0.00 0.00 0.00 0.00 0.00 0.00 0.00 0.00 0.00 0.01 0.04 0.06 0.07 0.08 0.08 0.06 0.04 0.02 0.03 0.06 0.09 0.11 0.12 0.12 0.12 0.12 0.09 0.07 0.07 0.07 0.09 0.12 0.16 0.24 0.23 0.22 0.21 0.20 0.14 0.13 0.13 0.13 0.11 0.08 0.05 0.07 0.04 0.02 0.00 0.00 0.00 0.01 0.01 0.01 0.01 0.03 0.06 0.07 0.09 0.10 0.07 0.00 0.00 0.00 0.00 0.00 0.00 0.00 0.00 0.00 0.00 0.00 0.00 0.00 0.00
0.00 0.00 0.00 0.00 0.00 0.00 0.00 0.00 0.00 0.00 0.00 0.00 0.00 0.00 0.00 0.00 0.00 0.00 0.00 0.00 0.00 0.00 0.00 0.00 0.00 0.00 0.00 0.00 0.00 0.00 0.00 0.00 0.00 0.00 0.00 0.00 0.00 0.00 0.01 0.03 0.05 0.06 0.07 0.07 0.06 0.02 0.02 0.06 0.11 0.12 0.14 0.16 0.21 0.29 0.26 0.18 0.09 0.05 0.06 0.13 0.21 0.28 0.20 0.14 0.10 0.08 0.10 0.11 0.11 0.11 0.11 0.09 0.07 0.06 0.05 0.02 0.00 0.00 0.00 0.00 0.00 0.00 0.02 0.04 0.05 0.02 0.03 0.03 0.02 0.00 0.00 0.00 0.00 0.00 0.00 0.00 0.00 0.00 0.00 0.00 0.00 0.00 0.00
0.00 0.00 0.00 0.00 0.00 0.00 0.00 0.00 0.00 0.00 0.00 0.00 0.00 0.00 0.00 0.00 0.00 0.00 0.00 0.00 0.00 0.00 0.00 0.00 0.00 0.00 0.00 0.00 0.00 0.00 0.00 0.00 0.00 0.00 0.00 0.00 0.00 0.00 0.00 0.00 0.00 0.00 0.00 0.04 0.08 0.09 0.08 0.10 0.14 0.18 0.19 0.20 0.22 0.25 0.24 0.21 0.17 0.15 0.15 0.16 0.16 0.16 0.16 0.14 0.10 0.04 0.06 0.08 0.10 0.10 0.07 0.06 0.07 0.08 0.04 0.02 0.01 0.00 0.00 0.00 0.00 0.00 0.00 0.02 0.04 0.07 0.06 0.04 0.03 0.04 0.01 0.00 0.00 0.00 0.00 0.00 0.00 0.00 0.00 0.00 0.00 0.00 0.00
0.00 0.00 0.00 0.00 0.00 0.00 0.00 0.00 0.00 0.00 0.00 0.00 0.00 0.00 0.00 0.00 0.00 0.00 0.00 0.00 0.00 0.00 0.00 0.00 0.00 0.00 0.00 0.00 0.00 0.00 0.00 0.00 0.00 0.00 0.00 0.00 0.00 0.00 0.00 0.00 0.00 0.00 0.00 0.00 0.00 0.00 0.00 0.03 0.06 0.06 0.05 0.05 0.06 0.08 0.10 0.11 0.10 0.10 0.12 0.11 0.10 0.10 0.12 0.13 0.13 0.14 0.09 0.07 0.06 0.02 0.02 0.02 0.02 0.01 0.01 0.00 0.00 0.00 0.00 0.00 0.00 0.00 0.00 0.02 0.08 0.16 0.17 0.17 0.16 0.14 0.04 0.00 0.00 0.00 0.00 0.00 0.00 0.00 0.00 0.00 0.00 0.00 0.00
0.00 0.00 0.00 0.00 0.00 0.00 0.00 0.00 0.00 0.00 0.00 0.00 0.00 0.00 0.00 0.00 0.00 0.00 0.00 0.00 0.00 0.00 0.00 0.00 0.00 0.00 0.00 0.00 0.00 0.00 0.00 0.00 0.00 0.00 0.00 0.00 0.00 0.00 0.00 0.00 0.00 0.00 0.00 0.00 0.00 0.00 0.01 0.01 0.00 0.00 0.00 0.01 0.03 0.08 0.08 0.09 0.10 0.11 0.12 0.13 0.13 0.14 0.16 0.17 0.16 0.14 0.11 0.12 0.13 0.13 0.12 0.11 0.09 0.09 0.07 0.04 0.02 0.01 0.00 0.00 0.00 0.00 0.00 0.01 0.03 0.06 0.12 0.12 0.12 0.17 0.09 0.03 0.01 0.00 0.00 0.00 0.00 0.00 0.00 0.00 0.00 0.00 0.00
0.00 0.00 0.00 0.00 0.00 0.00 0.00 0.00 0.00 0.00 0.00 0.00 0.00 0.00 0.00 0.00 0.00 0.00 0.00 0.00 0.00 0.00 0.00 0.00 0.00 0.00 0.00 0.00 0.00 0.00 0.00 0.00 0.00 0.00 0.00 0.01 0.01 0.00 0.00 0.00 0.00 0.00 0.00 0.02 0.03 0.03 0.03 0.04 0.04 0.03 0.03 0.03 0.03 0.02 0.04 0.04 0.04 0.07 0.08 0.09 0.10 0.11 0.14 0.14 0.14 0.14 0.14 0.14 0.14 0.13 0.13 0.12 0.11 0.11 0.10 0.09 0.09 0.08 0.05 0.03 0.01 0.00 0.00 0.00 0.01 0.02 0.03 0.06 0.10 0.14 0.20 0.14 0.05 0.00 0.00 0.00 0.00 0.00 0.00 0.00 0.00 0.00 0.00
0.00 0.00 0.00 0.00 0.00 0.00 0.00 0.00 0.00 0.00 0.00 0.00 0.00 0.00 0.00 0.00 0.00 0.00 0.02 0.02 0.02 0.01 0.00 0.01 0.01 0.01 0.00 0.00 0.00 0.00 0.00 0.00 0.00 0.00 0.02 0.02 0.03 0.03 0.01 0.01 0.00 0.01 0.02 0.03 0.04 0.04 0.05 0.05 0.05 0.05 0.05 0.05 0.06 0.07 0.06 0.06 0.06 0.07 0.07 0.07 0.07 0.08 0.11 0.12 0.11 0.08 0.10 0.11 0.12 0.14 0.13 0.13 0.13 0.14 0.12 0.11 0.11 0.12 0.09 0.06 0.04 0.03 0.01 0.00 0.00 0.01 0.02 0.03 0.04 0.05 0.09 0.11 0.09 0.03 0.01 0.00 0.00 0.00 0.00 0.00 0.00 0.00 0.00
0.00 0.00 0.00 0.00 0.00 0.00 0.00 0.00 0.00 0.00 0.00 0.00 0.00 0.00 0.00 0.00 0.00 0.00 0.01 0.02 0.02 0.04 0.03 0.03 0.02 0.02 0.01 0.00 0.00 0.00 0.01 0.01 0.01 0.02 0.04 0.04 0.04 0.03 0.02 0.02 0.02 0.02 0.04 0.05 0.05 0.05 0.05 0.05 0.05 0.07 0.07 0.07 0.07 0.08 0.07 0.07 0.07 0.07 0.08 0.07 0.07 0.07 0.08 0.07 0.05 0.05 0.05 0.07 0.10 0.11 0.14 0.16 0.17 0.17 0.18 0.18 0.17 0.15 0.13 0.11 0.08 0.06 0.03 0.01 0.01 0.02 0.01 0.00 0.01 0.01 0.02 0.05 0.08 0.09 0.04 0.02 0.00 0.00 0.00 0.00 0.00 0.00 0.00
0.00 0.00 0.00 0.00 0.00 0.00 0.00 0.00 0.00 0.00 0.00 0.00 0.00 0.00 0.00 0.00 0.00 0.00 0.00 0.00 0.01 0.01 0.03 0.04 0.03 0.03 0.02 0.01 0.02 0.02 0.03 0.03 0.03 0.04 0.05 0.05 0.05 0.04 0.07 0.08 0.08 0.05 0.05 0.06 0.06 0.06 0.06 0.06 0.05 0.06 0.07 0.07 0.07 0.08 0.07 0.07 0.07 0.07 0.07 0.07 0.08 0.08 0.10 0.10 0.09 0.07 0.05 0.05 0.06 0.09 0.12 0.15 0.19 0.23 0.23 0.23 0.23 0.21 0.19 0.16 0.13 0.10 0.06 0.04 0.03 0.04 0.02 0.01 0.00 0.00 0.01 0.01 0.03 0.07 0.06 0.03 0.01 0.01 0.00 0.00 0.00 0.00 0.00
0.00 0.00 0.00 0.00 0.00 0.00 0.00 0.00 0.00 0.00 0.00 0.00 0.00 0.00 0.00 0.00 0.00 0.00 0.00 0.00 0.00 0.00 0.01 0.03 0.04 0.04 0.05 0.05 0.05 0.04 0.03 0.03 0.04 0.05 0.06 0.07 0.08 0.11 0.11 0.10 0.08 0.06 0.06 0.06 0.06 0.06 0.08 0.08 0.07 0.06 0.06 0.06 0.06 0.06 0.07 0.07 0.06 0.05 0.07 0.08 0.09 0.10 0.11 0.11 0.10 0.09 0.08 0.07 0.07 0.10 0.12 0.14 0.18 0.24 0.27 0.30 0.33 0.33 0.30 0.27 0.24 0.21 0.15 0.11 0.09 0.11 0.07 0.04 0.02 0.00 0.00 0.00 0.01 0.02 0.03 0.03 0.02 0.00 0.00 0.00 0.00 0.00 0.00
0.00 0.00 0.00 0.00 0.00 0.00 0.00 0.00 0.00 0.00 0.00 0.00 0.00 0.00 0.00 0.00 0.00 0.00 0.00 0.00 0.00 0.00 0.01 0.03 0.04 0.05 0.07 0.06 0.05 0.04 0.05 0.04 0.04 0.06 0.08 0.10 0.11 0.13 0.11 0.09 0.07 0.07 0.07 0.08 0.08 0.09 0.11 0.10 0.08 0.06 0.06 0.06 0.06 0.06 0.06 0.06 0.06 0.05 0.08 0.10 0.11 0.10 0.10 0.10 0.11 0.11 0.11 0.11 0.10 0.10 0.12 0.14 0.17 0.22 0.26 0.31 0.38 0.46 0.43 0.39 0.34 0.30 0.26 0.24 0.22 0.20 0.17 0.14 0.09 0.03 0.01 0.01 0.00 0.00 0.02 0.02 0.02 0.01 0.01 0.01 0.01 0.01 0.01
0.00 0.00 0.00 0.00 0.00 0.00 0.00 0.00 0.00 0.00 0.00 0.00 0.00 0.00 0.00 0.00 0.00 0.00 0.00 0.00 0.00 0.00 0.01 0.02 0.03 0.05 0.04 0.04 0.04 0.04 0.05 0.06 0.06 0.07 0.08 0.08 0.08 0.08 0.09 0.08 0.07 0.05 0.06 0.07 0.08 0.11 0.11 0.09 0.08 0.09 0.09 0.07 0.06 0.05 0.05 0.06 0.07 0.06 0.08 0.10 0.10 0.10 0.09 0.10 0.10 0.11 0.12 0.13 0.13 0.12 0.12 0.13 0.15 0.19 0.23 0.28 0.34 0.42 0.46 0.45 0.42 0.37 0.37 0.34 0.30 0.27 0.25 0.24 0.20 0.12 0.07 0.05 0.03 0.02 0.02 0.02 0.03 0.03 0.03 0.02 0.01 0.02 0.02
0.01 0.00 0.00 0.00 0.00 0.00 0.00 0.00 0.00 0.00 0.00 0.00 0.00 0.00 0.00 0.00 0.00 0.00 0.00 0.00 0.00 0.00 0.01 0.01 0.01 0.02 0.02 0.02 0.02 0.03 0.03 0.04 0.05 0.05 0.05 0.05 0.05 0.05 0.06 0.06 0.04 0.03 0.06 0.10 0.14 0.15 0.14 0.10 0.07 0.08 0.08 0.06 0.04 0.04 0.05 0.07 0.07 0.06 0.07 0.07 0.08 0.09 0.09 0.09 0.09 0.10 0.11 0.12 0.13 0.14 0.13 0.13 0.14 0.16 0.19 0.23 0.26 0.30 0.37 0.42 0.44 0.42 0.46 0.44 0.40 0.37 0.37 0.35 0.32 0.25 0.18 0.14 0.11 0.07 0.04 0.05 0.06 0.06 0.04 0.02 0.01 0.01 0.01
0.01 0.01 0.01 0.00 0.00 0.00 0.00 0.00 0.00 0.00 0.00 0.00 0.00 0.00 0.01 0.01 0.01 0.01 0.01 0.01 0.01 0.01 0.01 0.01 0.01 0.01 0.01 0.01 0.01 0.02 0.02 0.02 0.02 0.02 0.03 0.03 0.04 0.07 0.05 0.03 0.04 0.08 0.16 0.21 0.23 0.20 0.15 0.11 0.09 0.08 0.07 0.05 0.04 0.04 0.05 0.06 0.06 0.06 0.05 0.05 0.06 0.06 0.06 0.09 0.12 0.12 0.12 0.12 0.12 0.11 0.11 0.11 0.12 0.13 0.15 0.17 0.18 0.20 0.22 0.30 0.36 0.34 0.38 0.41 0.44 0.47 0.46 0.43 0.40 0.35 0.28 0.23 0.20 0.16 0.15 0.13 0.11 0.07 0.05 0.03 0.02 0.01 0.01
0.01 0.01 0.01 0.01 0.01 0.00 0.00 0.00 0.00 0.00 0.00 0.00 0.00 0.01 0.01 0.01 0.01 0.01 0.01 0.01 0.01 0.01 0.01 0.01 0.02 0.02 0.02 0.02 0.02 0.02 0.02 0.02 0.02 0.02 0.02 0.04 0.06 0.06 0.04 0.03 0.06 0.16 0.22 0.23 0.21 0.16 0.11 0.10 0.11 0.12 0.12 0.10 0.08 0.09 0.09 0.08 0.08 0.07 0.05 0.05 0.06 0.07 0.09 0.13 0.17 0.18 0.17 0.15 0.12 0.08 0.08 0.08 0.08 0.08 0.10 0.11 0.12 0.14 0.16 0.20 0.23 0.23 0.27 0.30 0.34 0.40 0.41 0.41 0.40 0.37 0.34 0.32 0.30 0.27 0.26 0.23 0.16 0.07 0.04 0.03 0.02 0.01 0.01
0.00 0.01 0.02 0.02 0.01 0.00 0.00 0.00 0.00 0.00 0.00 0.00 0.00 0.01 0.02 0.02 0.02 0.02 0.02 0.02 0.01 0.01 0.01 0.02 0.02 0.02 0.03 0.03 0.04 0.04 0.05 0.04 0.04 0.04 0.05 0.06 0.06 0.05 0.04 0.05 0.08 0.15 0.19 0.19 0.17 0.16 0.16 0.16 0.16 0.16 0.16 0.15 0.13 0.13 0.13 0.13 0.12 0.10 0.09 0.08 0.09 0.12 0.15 0.19 0.21 0.21 0.19 0.16 0.11 0.07 0.05 0.05 0.05 0.05 0.06 0.07 0.08 0.10 0.12 0.12 0.11 0.14 0.16 0.18 0.21 0.26 0.31 0.34 0.36 0.36 0.36 0.37 0.37 0.32 0.33 0.30 0.24 0.16 0.08 0.05 0.04 0.03 0.02
0.00 0.01 0.01 0.02 0.01 0.00 0.00 0.00 0.00 0.00 0.00 0.00 0.00 0.01 0.01 0.02 0.02 0.02 0.02 0.01 0.01 0.01 0.01 0.02 0.02 0.02 0.03 0.03 0.05 0.06 0.06 0.06 0.05 0.05 0.06 0.05 0.04 0.04 0.04 0.06 0.10 0.17 0.20 0.21 0.22 0.23 0.26 0.27 0.26 0.26 0.29 0.25 0.20 0.21 0.20 0.19 0.17 0.14 0.14 0.13 0.14 0.15 0.15 0.20 0.24 0.20 0.16 0.13 0.10 0.07 0.05 0.04 0.04 0.04 0.05 0.05 0.06 0.07 0.08 0.07 0.07 0.08 0.09 0.10 0.14 0.20 0.23 0.26 0.29 0.32 0.34 0.36 0.37 0.36 0.36 0.36 0.34 0.33 0.19 0.11 0.06 0.04 0.03
0.00 0.00 0.01 0.01 0.01 0.00 0.00 0.00 0.00 0.00 0.00 0.00 0.00 0.00 0.00 0.01 0.01 0.02 0.01 0.01 0.02 0.02 0.02 0.02 0.03 0.03 0.05 0.06 0.07 0.07 0.06 0.06 0.05 0.05 0.04 0.04 0.05 0.06 0.06 0.08 0.12 0.23 0.31 0.34 0.34 0.30 0.31 0.30 0.30 0.32 0.35 0.33 0.33 0.37 0.38 0.36 0.34 0.30 0.26 0.23 0.22 0.20 0.17 0.19 0.19 0.15 0.12 0.11 0.10 0.08 0.07 0.06 0.05 0.05 0.06 0.06 0.06 0.07 0.08 0.08 0.07 0.05 0.07 0.09 0.12 0.16 0.17 0.21 0.25 0.28 0.31 0.33 0.35 0.35 0.36 0.37 0.38 0.39 0.35 0.24 0.13 0.07 0.04
0.00 0.01 0.01 0.01 0.01 0.01 0.00 0.00 0.00 0.00 0.00 0.00 0.00 0.01 0.00 0.01 0.01 0.02 0.02 0.02 0.02 0.03 0.02 0.03 0.04 0.06 0.07 0.08 0.08 0.09 0.08 0.07 0.06 0.06 0.05 0.06 0.07 0.08 0.08 0.14 0.25 0.38 0.43 0.42 0.37 0.31 0.29 0.29 0.31 0.35 0.32 0.34 0.39 0.45 0.51 0.52 0.52 0.54 0.46 0.40 0.36 0.33 0.30 0.26 0.21 0.17 0.16 0.15 0.14 0.13 0.10 0.09 0.08 0.08 0.09 0.09 0.10 0.11 0.12 0.11 0.10 0.08 0.09 0.10 0.11 0.11 0.12 0.17 0.23 0.26 0.29 0.30 0.30 0.27 0.30 0.31 0.32 0.34 0.36 0.33 0.26 0.17 0.10
0.00 0.01 0.01 0.01 0.01 0.01 0.01 0.01 0.00 0.00 0.00 0.00 0.00 0.00 0.00 0.01 0.01 0.02 0.02 0.02 0.03 0.04 0.04 0.06 0.07 0.08 0.08 0.08 0.08 0.09 0.09 0.09 0.09 0.09 0.10 0.12 0.13 0.14 0.15 0.26 0.41 0.52 0.51 0.48 0.44 0.45 0.42 0.41 0.41 0.41 0.36 0.37 0.41 0.45 0.47 0.50 0.55 0.61 0.56 0.50 0.46 0.45 0.41 0.35 0.28 0.26 0.26 0.25 0.22 0.20 0.17 0.17 0.16 0.13 0.12 0.14 0.17 0.16 0.15 0.13 0.12 0.12 0.12 0.12 0.13 0.13 0.12 0.14 0.18 0.22 0.24 0.24 0.24 0.23 0.24 0.23 0.23 0.25 0.28 0.32 0.33 0.28 0.18
0.00 0.00 0.02 0.02 0.01 0.02 0.01 0.01 0.00 0.00 0.00 0.00 0.00 0.00 0.00 0.00 0.01 0.01 0.02 0.03 0.04 0.06 0.06 0.07 0.08 0.08 0.08 0.08 0.08 0.09 0.10 0.10 0.11 0.15 0.17 0.19 0.22 0.27 0.31 0.46 0.62 0.71 0.75 0.74 0.74 0.78 0.70 0.69 0.69 0.67 0.61 0.56 0.52 0.53 0.53 0.54 0.55 0.57 0.56 0.51 0.47 0.47 0.49 0.44 0.37 0.35 0.34 0.32 0.29 0.27 0.29 0.28 0.26 0.22 0.20 0.26 0.32 0.29 0.27 0.24 0.22 0.20 0.18 0.17 0.17 0.15 0.14 0.13 0.14 0.18 0.20 0.24 0.26 0.26 0.26 0.24 0.22 0.23 0.25 0.28 0.31 0.32 0.28
0.00 0.02 0.02 0.01 0.01 0.01 0.01 0.00 0.00 0.00 0.00 0.00 0.00 0.00 0.00 0.01 0.01 0.01 0.02 0.03 0.04 0.08 0.07 0.08 0.10 0.12 0.15 0.17 0.17 0.17 0.18 0.19 0.20 0.20 0.24 0.30 0.38 0.46 0.56 0.77 0.99 1.11 1.16 1.16 1.14 1.12 0.93 0.88 0.88 0.86 0.80 0.74 0.70 0.69 0.69 0.67 0.64 0.63 0.64 0.60 0.54 0.53 0.55 0.53 0.50 0.49 0.46 0.44 0.41 0.39 0.40 0.40 0.39 0.36 0.46 0.49 0.47 0.40 0.36 0.33 0.31 0.29 0.27 0.25 0.23 0.21 0.20 0.19 0.18 0.18 0.22 0.24 0.25 0.24 0.25 0.25 0.23 0.22 0.23 0.23 0.25 0.28 0.22
0.00 0.00 0.01 0.01 0.00 0.01 0.01 0.00 0.00 0.00 0.00 0.00 0.00 0.00 0.00 0.01 0.02 0.02 0.03 0.05 0.08 0.09 0.09 0.10 0.10 0.12 0.17 0.22 0.27 0.33 0.37 0.40 0.43 0.46 0.40 0.48 0.64 0.81 1.01 1.25 1.43 1.43 1.43 1.40 1.33 1.22 1.17 1.14 1.12 1.09 1.03 0.97 0.92 0.88 0.88 0.85 0.81 0.78 0.76 0.72 0.68 0.65 0.64 0.61 0.60 0.63 0.61 0.60 0.59 0.56 0.56 0.57 0.62 0.72 0.69 0.66 0.59 0.47 0.44 0.41 0.39 0.37 0.34 0.31 0.28 0.26 0.24 0.24 0.23 0.20 0.29 0.30 0.28 0.25 0.26 0.27 0.27 0.22 0.22 0.22 0.21 0.20 0.17
0.00 0.00 0.00 0.00 0.00 0.01 0.00 0.00 0.00 0.00 0.00 0.00 0.00 0.00 0.00 0.01 0.02 0.03 0.05 0.05 0.06 0.05 0.06 0.06 0.06 0.07 0.10 0.12 0.15 0.19 0.27 0.37 0.57 0.97 1.10 1.16 1.24 1.45 1.57 1.64 1.63 1.51 1.43 1.32 1.23 1.21 1.23 1.22 1.20 1.18 1.14 1.14 1.15 1.16 1.12 1.07 1.02 1.01 0.97 0.92 0.88 0.84 0.82 0.83 0.85 0.88 0.84 0.83 0.84 0.84 0.82 0.95 1.08 1.04 0.97 0.93 0.87 0.76 0.69 0.63 0.58 0.55 0.53 0.49 0.45 0.42 0.37 0.34 0.31 0.29 0.37 0.39 0.36 0.30 0.28 0.28 0.28 0.26 0.25 0.25 0.24 0.20 0.20
0.00 0.00 0.00 0.01 0.01 0.01 0.00 0.00 0.00 0.00 0.00 0.00 0.00 0.00 0.01 0.00 0.01 0.01 0.04 0.04 0.04 0.04 0.03 0.03 0.02 0.03 0.06 0.08 0.10 0.12 0.14 0.22 0.37 0.58 0.84 1.00 1.25 1.76 1.79 1.76 1.68 1.56 1.37 1.23 1.17 1.20 1.24 1.26 1.23 1.17 1.11 1.12 1.19 1.26 1.23 1.19 1.17 1.19 1.15 1.10 1.06 1.08 1.07 1.13 1.20 1.23 1.24 1.25 1.26 1.24 1.46 1.54 1.53 1.48 1.44 1.42 1.39 1.35 1.23 1.14 1.07 1.01 0.96 0.91 0.83 0.71 0.65 0.60 0.58 0.64 0.59 0.53 0.46 0.42 0.39 0.36 0.32 0.26 0.27 0.28 0.28 0.25 0.24
0.02 0.02 0.03 0.03 0.03 0.03 0.01 0.00 0.00 0.00 0.00 0.01 0.01 0.01 0.01 0.01 0.01 0.01 0.02 0.02 0.03 0.04 0.03 0.03 0.02 0.01 0.02 0.04 0.06 0.09 0.13 0.18 0.23 0.26 0.34 0.47 0.63 0.83 1.22 1.38 1.39 1.28 1.20 1.19 1.23 1.33 1.37 1.40 1.40 1.34 1.32 1.26 1.18 1.12 1.07 1.04 1.00 0.96 0.98 1.01 1.05 1.09 1.13 1.13 1.13 1.17 1.25 1.33 1.33 1.18 1.28 1.40 1.50 1.54 1.58 1.64 1.69 1.72 1.67 1.61 1.54 1.47 1.43 1.36 1.24 1.05 0.97 0.89 0.86 0.94 0.85 0.73 0.62 0.55 0.52 0.46 0.40 0.33 0.28 0.25 0.24 0.22 0.22
0.01 0.02 0.02 0.02 0.03 0.03 0.03 0.03 0.03 0.03 0.03 0.03 0.03 0.03 0.03 0.03 0.03 0.03 0.01 0.01 0.01 0.02 0.03 0.03 0.03 0.03 0.03 0.02 0.02 0.02 0.02 0.05 0.10 0.15 0.16 0.23 0.35 0.53 0.63 1.09 1.45 1.23 1.19 1.24 1.37 1.55 1.59 1.62 1.61 1.52 1.47 1.36 1.24 1.17 1.07 0.97 0.88 0.79 0.76 0.79 0.83 0.88 0.87 0.86 0.86 0.90 0.95 0.93 0.89 0.92 0.95 1.00 1.07 1.14 1.17 1.23 1.30 1.40 1.47 1.51 1.54 1.57 1.55 1.55 1.53 1.48 1.32 1.28 1.29 1.25 1.20 1.12 1.00 0.79 0.70 0.59 0.48 0.40 0.37 0.31 0.27 0.30 0.23
0.00 0.00 0.01 0.01 0.00 0.00 0.00 0.01 0.02 0.02 0.03 0.04 0.04 0.05 0.05 0.05 0.06 0.06 0.08 0.06 0.04 0.06 0.07 0.08 0.08 0.08 0.07 0.06 0.05 0.04 0.03 0.03 0.03 0.04 0.07 0.09 0.13 0.18 0.26 0.19 0.24 0.66 0.72 0.85 1.02 1.19 1.19 1.15 1.10 1.05 1.11 1.15 1.18 1.16 1.09 1.00 0.91 0.85 0.78 0.76 0.77 0.81 0.82 0.81 0.79 0.79 0.81 0.83 0.82 0.80 0.77 0.75 0.76 0.80 0.81 0.82 0.84 0.86 0.90 0.98 1.05 1.08 1.11 1.15 1.20 1.24 1.30 1.19 1.06 1.10 1.16 1.18 1.14 1.02 0.94 0.83 0.73 0.66 0.55 0.61 0.64 0.46 0.35
0.00 0.00 0.00 0.00 0.00 0.00 0.00 0.00 0.00 0.00 0.00 0.00 0.00 0.00 0.00 0.01 0.01 0.01 0.01 0.05 0.09 0.09 0.10 0.11 0.11 0.10 0.08 0.08 0.07 0.08 0.09 0.09 0.10 0.11 0.11 0.11 0.11 0.10 0.10 0.08 0.05 0.03 0.05 0.08 0.16 0.34 0.46 0.54 0.61 0.66 0.71 0.76 0.78 0.78 0.78 0.76 0.74 0.75 0.78 0.78 0.76 0.73 0.69 0.59 0.51 0.52 0.57 0.62 0.65 0.67 0.65 0.63 0.62 0.62 0.62 0.61 0.60 0.60 0.59 0.63 0.68 0.71 0.74 0.76 0.79 0.83 0.92 0.83 0.72 0.76 0.83 0.89 0.92 0.93 0.96 0.95 0.91 0.86 0.80 0.81 0.80 0.71 0.59
0.00 0.00 0.01 0.01 0.01 0.01 0.01 0.01 0.00 0.00 0.00 0.00 0.00 0.00 0.00 0.00 0.00 0.00 0.00 0.00 0.00 0.01 0.01 0.01 0.01 0.01 0.01 0.01 0.01 0.01 0.02 0.02 0.02 0.03 0.03 0.03 0.03 0.04 0.04 0.04 0.03 0.02 0.01 0.01 0.03 0.09 0.14 0.17 0.20 0.21 0.25 0.30 0.33 0.33 0.35 0.39 0.43 0.46 0.53 0.54 0.54 0.55 0.39 0.34 0.35 0.36 0.36 0.38 0.40 0.42 0.43 0.44 0.45 0.46 0.47 0.47 0.46 0.45 0.44 0.46 0.49 0.51 0.54 0.55 0.57 0.59 0.52 0.51 0.54 0.57 0.60 0.63 0.65 0.66 0.73 0.76 0.78 0.78 0.79 0.75 0.72 0.75 0.72
0.00 0.01 0.01 0.01 0.01 0.01 0.01 0.01 0.00 0.01 0.00 0.00 0.00 0.00 0.00 0.00 0.00 0.00 0.00 0.00 0.00 0.00 0.00 0.01 0.00 0.00 0.00 0.00 0.00 0.01 0.01 0.01 0.01 0.01 0.01 0.01 0.02 0.02 0.02 0.02 0.02 0.01 0.01 0.00 0.01 0.01 0.03 0.04 0.07 0.12 0.15 0.15 0.16 0.18 0.21 0.23 0.26 0.27 0.27 0.29 0.31 0.33 0.34 0.32 0.30 0.29 0.33 0.35 0.35 0.36 0.37 0.38 0.38 0.38 0.38 0.37 0.37 0.36 0.35 0.34 0.34 0.34 0.36 0.39 0.42 0.43 0.35 0.36 0.41 0.44 0.48 0.50 0.52 0.53 0.54 0.55 0.56 0.56 0.50 0.51 0.55 0.59 0.61
0.00 0.00 0.00 0.00 0.00 0.01 0.00 0.00 0.00 0.00 0.00 0.00 0.00 0.00 0.00 0.00 0.00 0.00 0.00 0.00 0.00 0.00 0.00 0.00 0.00 0.00 0.00 0.00 0.00 0.00 0.00 0.00 0.00 0.00 0.00 0.00 0.01 0.01 0.01 0.01 0.01 0.01 0.00 0.00 0.00 0.00 0.00 0.01 0.02 0.03 0.04 0.05 0.06 0.07 0.07 0.08 0.08 0.08 0.12 0.16 0.20 0.24 0.26 0.28 0.29 0.31 0.36 0.39 0.41 0.40 0.40 0.40 0.40 0.40 0.34 0.31 0.29 0.27 0.25 0.24 0.23 0.21 0.22 0.23 0.22 0.14 0.17 0.20 0.25 0.33 0.35 0.38 0.40 0.42 0.43 0.45 0.46 0.45 0.43 0.45 0.47 0.50 0.49
0.00 0.00 0.00 0.00 0.00 0.00 0.00 0.00 0.00 0.00 0.00 0.00 0.00 0.00 0.00 0.00 0.00 0.00 0.00 0.00 0.00 0.00 0.00 0.00 0.00 0.00 0.00 0.00 0.00 0.00 0.00 0.00 0.00 0.00 0.00 0.00 0.00 0.00 0.00 0.00 0.00 0.00 0.00 0.00 0.00 0.00 0.01 0.01 0.01 0.02 0.02 0.03 0.03 0.03 0.03 0.03 0.04 0.04 0.04 0.07 0.10 0.14 0.16 0.18 0.20 0.21 0.25 0.28 0.31 0.32 0.32 0.31 0.30 0.29 0.25 0.23 0.21 0.18 0.16 0.15 0.13 0.13 0.12 0.12 0.12 0.09 0.09 0.11 0.14 0.19 0.23 0.27 0.29 0.32 0.34 0.37 0.38 0.37 0.36 0.38 0.40 0.42 0.42
0.01 0.00 0.00 0.00 0.00 0.01 0.01 0.01 0.01 0.01 0.01 0.00 0.00 0.00 0.00 0.00 0.00 0.00 0.00 0.00 0.00 0.00 0.00 0.00 0.00 0.00 0.00 0.00 0.00 0.00 0.00 0.00 0.00 0.00 0.00 0.00 0.00 0.00 0.00 0.00 0.00 0.00 0.00 0.00 0.00 0.01 0.01 0.01 0.01 0.01 0.02 0.02 0.02 0.02 0.02 0.02 0.02 0.02 0.02 0.04 0.06 0.08 0.10 0.11 0.12 0.13 0.14 0.16 0.17 0.19 0.18 0.17 0.16 0.15 0.13 0.13 0.13 0.13 0.11 0.10 0.09 0.09 0.09 0.09 0.09 0.09 0.08 0.08 0.08 0.09 0.12 0.15 0.18 0.21 0.24 0.27 0.28 0.23 0.26 0.30 0.33 0.34 0.35
0.01 0.01 0.01 0.01 0.01 0.01 0.02 0.02 0.02 0.02 0.01 0.01 0.01 0.01 0.00 0.00 0.00 0.00 0.01 0.01 0.01 0.01 0.01 0.01 0.01 0.01 0.00 0.00 0.00 0.00 0.00 0.00 0.00 0.00 0.01 0.01 0.01 0.01 0.01 0.01 0.01 0.01 0.00 0.00 0.00 0.01 0.01 0.01 0.01 0.01 0.02 0.02 0.03 0.03 0.02 0.02 0.02 0.02 0.02 0.03 0.05 0.06 0.08 0.09 0.10 0.12 0.12 0.11 0.10 0.10 0.10 0.10 0.09 0.08 0.08 0.08 0.09 0.09 0.09 0.08 0.08 0.08 0.08 0.08 0.08 0.08 0.08 0.07 0.07 0.07 0.06 0.07 0.09 0.11 0.14 0.17 0.17 0.14 0.17 0.21 0.25 0.27 0.29
0.01 0.01 0.00 0.00 0.00 0.00 0.00 0.00 0.00 0.00 0.01 0.01 0.01 0.01 0.00 0.00 0.00 0.01 0.01 0.01 0.01 0.01 0.01 0.01 0.02 0.01 0.01 0.01 0.00 0.00 0.00 0.00 0.01 0.01 0.01 0.01 0.01 0.01 0.02 0.02 0.01 0.01 0.00 0.00 0.01 0.01 0.01 0.01 0.01 0.01 0.02 0.03 0.04 0.04 0.04 0.03 0.03 0.03 0.03 0.03 0.05 0.07 0.08 0.10 0.11 0.13 0.15 0.14 0.11 0.09 0.08 0.07 0.07 0.06 0.06 0.07 0.08 0.07 0.06 0.06 0.06 0.06 0.05 0.06 0.06 0.07 0.06 0.06 0.06 0.05 0.05 0.04 0.04 0.05 0.07 0.08 0.09 0.08 0.10 0.14 0.18 0.21 0.22
0.01 0.00 0.00 0.00 0.00 0.01 0.01 0.01 0.00 0.00 0.01 0.01 0.00 0.00 0.00 0.00 0.00 0.00 0.00 0.01 0.01 0.01 0.01 0.01 0.01 0.01 0.01 0.01 0.00 0.00 0.00 0.00 0.01 0.01 0.01 0.01 0.01 0.01 0.01 0.01 0.01 0.01 0.00 0.00 0.01 0.02 0.02 0.02 0.02 0.03 0.03 0.05 0.06 0.06 0.06 0.06 0.05 0.05 0.05 0.05 0.07 0.08 0.10 0.12 0.13 0.15 0.16 0.17 0.17 0.15 0.13 0.11 0.09 0.08 0.07 0.07 0.07 0.07 0.06 0.05 0.04 0.04 0.05 0.05 0.05 0.06 0.05 0.05 0.05 0.04 0.03 0.03 0.03 0.03 0.04 0.04 0.04 0.05 0.06 0.08 0.10 0.13 0.16
0.02 0.01 0.01 0.02 0.02 0.02 0.02 0.01 0.01 0.01 0.01 0.01 0.01 0.01 0.01 0.00 0.01 0.01 0.01 0.01 0.01 0.00 0.01 0.01 0.01 0.00 0.00 0.00 0.01 0.00 0.00 0.00 0.01 0.01 0.01 0.01 0.01 0.01 0.01 0.01 0.01 0.01 0.01 0.01 0.01 0.02 0.03 0.04 0.04 0.05 0.05 0.07 0.08 0.08 0.08 0.08 0.08 0.07 0.07 0.08 0.08 0.09 0.11 0.12 0.14 0.15 0.17 0.19 0.20 0.20 0.18 0.16 0.15 0.13 0.11 0.10 0.09 0.07 0.06 0.05 0.05 0.05 0.05 0.05 0.05 0.06 0.05 0.05 0.04 0.03 0.03 0.02 0.02 0.02 0.03 0.03 0.03 0.04 0.05 0.06 0.07 0.08 0.10
0.01 0.02 0.02 0.02 0.02 0.02 0.02 0.01 0.01 0.01 0.01 0.01 0.01 0.01 0.01 0.01 0.01 0.01 0.01 0.01 0.01 0.01 0.01 0.01 0.01 0.00 0.00 0.00 0.01 0.00 0.00 0.01 0.01 0.01 0.01 0.01 0.01 0.01 0.01 0.01 0.02 0.01 0.02 0.02 0.02 0.02 0.03 0.05 0.06 0.06 0.07 0.09 0.10 0.11 0.11 0.11 0.11 0.10 0.10 0.10 0.10 0.10 0.11 0.12 0.13 0.15 0.17 0.19 0.20 0.21 0.20 0.19 0.18 0.16 0.14 0.13 0.10 0.06 0.06 0.05 0.05 0.05 0.05 0.05 0.06 0.06 0.06 0.05 0.04 0.03 0.03 0.03 0.02 0.02 0.03 0.03 0.03 0.04 0.04 0.05 0.05 0.06 0.07
0.01 0.01 0.01 0.01 0.01 0.01 0.01 0.01 0.01 0.00 0.00 0.00 0.00 0.01 0.01 0.01 0.01 0.00 0.01 0.01 0.01 0.01 0.01 0.01 0.01 0.01 0.01 0.01 0.01 0.01 0.01 0.01 0.02 0.02 0.02 0.02 0.01 0.01 0.01 0.01 0.01 0.01 0.04 0.04 0.04 0.03 0.03 0.04 0.05 0.06 0.07 0.09 0.12 0.14 0.15 0.16 0.16 0.14 0.14 0.14 0.13 0.13 0.13 0.13 0.14 0.15 0.17 0.19 0.20 0.20 0.20 0.19 0.18 0.17 0.15 0.14 0.11 0.09 0.09 0.08 0.08 0.07 0.07 0.07 0.07 0.07 0.07 0.06 0.05 0.04 0.03 0.03 0.03 0.03 0.04 0.04 0.04 0.04 0.04 0.05 0.05 0.06 0.06
0.01 0.01 0.01 0.01 0.01 0.01 0.01 0.00 0.00 0.00 0.00 0.00 0.00 0.00 0.00 0.00 0.00 0.00 0.00 0.00 0.00 0.00 0.00 0.01 0.01 0.01 0.01 0.01 0.01 0.01 0.02 0.02 0.03 0.04 0.04 0.04 0.04 0.04 0.04 0.03 0.02 0.02 0.04 0.06 0.07 0.06 0.05 0.05 0.06 0.07 0.08 0.10 0.14 0.17 0.20 0.22 0.22 0.21 0.20 0.19 0.18 0.17 0.17 0.18 0.19 0.18 0.18 0.18 0.19 0.21 0.21 0.20 0.19 0.18 0.16 0.15 0.13 0.13 0.13 0.13 0.12 0.11 0.10 0.10 0.09 0.08 0.08 0.07 0.06 0.05 0.04 0.04 0.03 0.04 0.04 0.05 0.05 0.05 0.06 0.06 0.06 0.06 0.06
0.01 0.01 0.01 0.01 0.00 0.01 0.01 0.00 0.00 0.00 0.00 0.00 0.00 0.00 0.00 0.00 0.00 0.00 0.00 0.00 0.00 0.00 0.00 0.00 0.00 0.01 0.01 0.02 0.02 0.02 0.02 0.02 0.03 0.04 0.03 0.03 0.04 0.04 0.05 0.05 0.05 0.06 0.07 0.08 0.08 0.09 0.10 0.10 0.09 0.09 0.09 0.11 0.14 0.16 0.19 0.22 0.25 0.27 0.26 0.26 0.25 0.25 0.26 0.28 0.28 0.27 0.24 0.22 0.21 0.22 0.23 0.23 0.22 0.20 0.18 0.17 0.16 0.17 0.17 0.16 0.16 0.17 0.16 0.15 0.14 0.12 0.11 0.10 0.08 0.06 0.06 0.05 0.05 0.06 0.06 0.06 0.06 0.07 0.07 0.07 0.07 0.07 0.06
0.00 0.00 0.01 0.01 0.02 0.02 0.02 0.01 0.01 0.00 0.00 0.00 0.00 0.00 0.00 0.00 0.00 0.00 0.00 0.00 0.00 0.00 0.00 0.00 0.00 0.00 0.00 0.01 0.01 0.01 0.01 0.02 0.03 0.03 0.02 0.02 0.02 0.02 0.02 0.03 0.03 0.04 0.05 0.07 0.08 0.12 0.15 0.17 0.18 0.17 0.16 0.16 0.16 0.15 0.17 0.19 0.23 0.27 0.29 0.29 0.31 0.37 0.38 0.39 0.40 0.40 0.37 0.32 0.27 0.25 0.26 0.27 0.26 0.25 0.22 0.22 0.22 0.21 0.20 0.19 0.19 0.21 0.20 0.20 0.18 0.16 0.15 0.13 0.11 0.08 0.07 0.07 0.07 0.08 0.08 0.08 0.08 0.08 0.08 0.08 0.08 0.08 0.07
0.00 0.00 0.00 0.01 0.01 0.01 0.02 0.02 0.02 0.02 0.02 0.01 0.00 0.00 0.00 0.00 0.00 0.00 0.00 0.00 0.00 0.00 0.00 0.00 0.00 0.00 0.00 0.00 0.00 0.00 0.00 0.01 0.01 0.02 0.02 0.02 0.02 0.02 0.02 0.01 0.01 0.02 0.02 0.03 0.04 0.07 0.10 0.13 0.17 0.19 0.23 0.24 0.23 0.22 0.21 0.21 0.23 0.25 0.28 0.32 0.37 0.44 0.46 0.48 0.49 0.51 0.52 0.48 0.41 0.35 0.33 0.33 0.33 0.32 0.37 0.36 0.31 0.27 0.25 0.24 0.23 0.24 0.24 0.23 0.21 0.19 0.18 0.16 0.14 0.12 0.10 0.09 0.08 0.08 0.08 0.09 0.09 0.09 0.09 0.09 0.09 0.08 0.08
0.00 0.00 0.00 0.00 0.00 0.00 0.01 0.01 0.02 0.03 0.04 0.04 0.03 0.02 0.02 0.01 0.00 0.00 0.00 0.00 0.00 0.00 0.00 0.00 0.00 0.00 0.00 0.00 0.00 0.00 0.00 0.00 0.00 0.00 0.01 0.01 0.01 0.01 0.01 0.01 0.02 0.02 0.02 0.02 0.02 0.03 0.04 0.06 0.09 0.14 0.20 0.24 0.26 0.26 0.25 0.25 0.26 0.27 0.31 0.37 0.43 0.46 0.49 0.51 0.54 0.60 0.64 0.64 0.60 0.51 0.46 0.44 0.44 0.46 0.49 0.46 0.41 0.36 0.33 0.31 0.29 0.29 0.28 0.26 0.23 0.20 0.18 0.17 0.16 0.15 0.13 0.12 0.10 0.10 0.09 0.09 0.09 0.10 0.10 0.10 0.09 0.08 0.08
0.00 0.00 0.00 0.00 0.00 0.00 0.00 0.00 0.01 0.03 0.04 0.05 0.04 0.04 0.03 0.02 0.01 0.00 0.00 0.00 0.01 0.01 0.01 0.00 0.00 0.00 0.00 0.00 0.00 0.00 0.00 0.00 0.00 0.00 0.00 0.00 0.01 0.01 0.01 0.01 0.02 0.03 0.03 0.03 0.03 0.03 0.03 0.03 0.05 0.07 0.13 0.16 0.18 0.19 0.21 0.24 0.27 0.31 0.36 0.42 0.48 0.55 0.56 0.57 0.60 0.63 0.67 0.70 0.71 0.68 0.63 0.62 0.62 0.58 0.54 0.50 0.47 0.44 0.42 0.38 0.35 0.33 0.32 0.29 0.25 0.21 0.18 0.16 0.15 0.15 0.13 0.12 0.11 0.11 0.11 0.11 0.11 0.10 0.10 0.09 0.08 0.08 0.07
0.00 0.00 0.00 0.00 0.00 0.00 0.00 0.00 0.01 0.02 0.03 0.04 0.05 0.04 0.04 0.03 0.01 0.01 0.01 0.01 0.01 0.01 0.00 0.00 0.00 0.00 0.00 0.00 0.00 0.01 0.01 0.01 0.01 0.01 0.01 0.01 0.01 0.01 0.01 0.01 0.02 0.03 0.03 0.04 0.04 0.04 0.04 0.04 0.04 0.04 0.08 0.10 0.11 0.13 0.15 0.19 0.23 0.28 0.34 0.40 0.47 0.59 0.66 0.69 0.69 0.70 0.72 0.74 0.75 0.78 0.79 0.80 0.78 0.73 0.66 0.60 0.55 0.51 0.48 0.46 0.43 0.40 0.38 0.34 0.29 0.24 0.20 0.18 0.16 0.14 0.14 0.13 0.12 0.12 0.12 0.12 0.12 0.11 0.10 0.08 0.07 0.07 0.06
0.00 0.00 0.00 0.00 0.00 0.00 0.00 0.01 0.01 0.01 0.02 0.03 0.04 0.05 0.05 0.04 0.03 0.01 0.01 0.01 0.01 0.01 0.01 0.01 0.01 0.00 0.00 0.00 0.01 0.01 0.01 0.01 0.01 0.01 0.01 0.01 0.02 0.02 0.02 0.02 0.03 0.04 0.05 0.05 0.05 0.05 0.05 0.05 0.05 0.04 0.04 0.07 0.09 0.11 0.13 0.15 0.19 0.22 0.29 0.34 0.41 0.52 0.65 0.74 0.81 0.83 0.84 0.84 0.86 0.95 0.92 0.89 0.86 0.82 0.78 0.69 0.60 0.52 0.52 0.52 0.50 0.46 0.45 0.39 0.32 0.26 0.22 0.19 0.18 0.16 0.17 0.16 0.15 0.15 0.14 0.13 0.12 0.10 0.10 0.09 0.08 0.07 0.06
0.00 0.00 0.00 0.00 0.00 0.00 0.00 0.01 0.01 0.02 0.02 0.03 0.04 0.05 0.05 0.05 0.05 0.04 0.02 0.01 0.01 0.01 0.01 0.01 0.01 0.01 0.01 0.01 0.02 0.02 0.02 0.02 0.02 0.02 0.02 0.02 0.02 0.03 0.03 0.04 0.05 0.06 0.07 0.07 0.06 0.06 0.06 0.06 0.05 0.05 0.04 0.06 0.08 0.10 0.11 0.13 0.17 0.22 0.27 0.30 0.33 0.36 0.51 0.69 0.82 0.88 0.91 0.95 1.01 1.11 1.02 0.93 0.88 0.89 0.87 0.80 0.69 0.56 0.55 0.55 0.54 0.51 0.48 0.44 0.38 0.28 0.24 0.22 0.23 0.25 0.24 0.22 0.19 0.17 0.17 0.16 0.13 0.12 0.10 0.10 0.09 0.08 0.07
0.00 0.00 0.00 0.01 0.01 0.00 0.00 0.00 0.00 0.01 0.02 0.03 0.04 0.04 0.05 0.06 0.07 0.06 0.05 0.05 0.05 0.04 0.03 0.03 0.03 0.03 0.03 0.04 0.05 0.06 0.05 0.05 0.04 0.04 0.04 0.04 0.04 0.05 0.06 0.06 0.07 0.07 0.07 0.07 0.07 0.07 0.07 0.06 0.06 0.05 0.05 0.04 0.05 0.08 0.12 0.14 0.17 0.21 0.26 0.30 0.32 0.33 0.46 0.59 0.72 0.84 0.81 0.91 1.02 1.01 1.00 0.97 0.95 0.97 0.97 0.90 0.79 0.66 0.61 0.60 0.61 0.58 0.50 0.43 0.36 0.31 0.29 0.28 0.29 0.33 0.30 0.26 0.23 0.19 0.18 0.18 0.17 0.13 0.13 0.12 0.11 0.09 0.07
0.00 0.00 0.00 0.00 0.00 0.00 0.01 0.00 0.00 0.01 0.01 0.01 0.01 0.01 0.03 0.04 0.05 0.05 0.04 0.06 0.08 0.08 0.08 0.08 0.08 0.07 0.08 0.09 0.10 0.09 0.09 0.09 0.09 0.09 0.08 0.08 0.08 0.09 0.10 0.10 0.10 0.10 0.10 0.10 0.09 0.09 0.08 0.07 0.06 0.06 0.05 0.05 0.05 0.07 0.13 0.18 0.22 0.25 0.28 0.30 0.32 0.34 0.43 0.45 0.46 0.51 0.63 0.79 0.93 0.99 0.97 0.99 1.02 1.04 1.06 0.99 0.88 0.77 0.70 0.67 0.64 0.62 0.51 0.43 0.36 0.31 0.34 0.40 0.44 0.42 0.36 0.31 0.27 0.24 0.22 0.20 0.19 0.17 0.14 0.12 0.10 0.08 0.06
0.00 0.00 0.00 0.00 0.00 0.00 0.00 0.00 0.00 0.00 0.01 0.01 0.01 0.01 0.01 0.02 0.04 0.06 0.05 0.03 0.03 0.03 0.04 0.05 0.05 0.06 0.10 0.12 0.12 0.12 0.12 0.13 0.13 0.11 0.10 0.10 0.10 0.11 0.13 0.14 0.13 0.14 0.13 0.13 0.12 0.12 0.09 0.08 0.07 0.06 0.05 0.06 0.08 0.11 0.16 0.21 0.24 0.26 0.29 0.29 0.28 0.27 0.37 0.44 0.49 0.52 0.59 0.70 0.83 0.95 0.98 0.99 0.98 0.97 1.04 1.00 0.90 0.79 0.71 0.67 0.64 0.56 0.47 0.39 0.35 0.33 0.36 0.44 0.49 0.44 0.40 0.35 0.31 0.27 0.26 0.24 0.22 0.19 0.17 0.13 0.10 0.08 0.06
0.00 0.00 0.00 0.00 0.00 0.00 0.00 0.00 0.00 0.00 0.00 0.00 0.00 0.00 0.01 0.01 0.03 0.05 0.03 0.02 0.01 0.01 0.01 0.00 0.01 0.02 0.04 0.05 0.07 0.08 0.08 0.09 0.09 0.11 0.10 0.09 0.10 0.14 0.15 0.16 0.16 0.16 0.15 0.16 0.16 0.15 0.13 0.11 0.10 0.09 0.07 0.08 0.09 0.12 0.15 0.19 0.23 0.26 0.28 0.29 0.28 0.26 0.38 0.48 0.54 0.56 0.60 0.67 0.77 0.90 0.95 0.98 0.97 0.93 0.96 0.93 0.85 0.76 0.70 0.64 0.59 0.51 0.42 0.36 0.32 0.34 0.42 0.46 0.47 0.44 0.40 0.36 0.33 0.32 0.29 0.26 0.24 0.22 0.20 0.17 0.14 0.11 0.06
0.00 0.00 0.00 0.00 0.00 0.00 0.00 0.00 0.00 0.00 0.00 0.00 0.00 0.00 0.01 0.01 0.01 0.02 0.01 0.01 0.01 0.01 0.01 0.01 0.01 0.01 0.01 0.01 0.02 0.04 0.05 0.05 0.05 0.06 0.07 0.07 0.08 0.09 0.11 0.14 0.17 0.20 0.21 0.21 0.20 0.19 0.17 0.15 0.13 0.12 0.11 0.11 0.12 0.11 0.11 0.12 0.15 0.19 0.25 0.30 0.33 0.33 0.34 0.41 0.49 0.52 0.56 0.61 0.68 0.76 0.86 0.95 0.97 0.91 0.85 0.82 0.79 0.72 0.67 0.60 0.53 0.45 0.39 0.34 0.33 0.38 0.44 0.45 0.43 0.40 0.38 0.37 0.35 0.32 0.30 0.28 0.26 0.23 0.21 0.18 0.15 0.11 0.08
0.00 0.00 0.00 0.00 0.00 0.00 0.00 0.00 0.00 0.00 0.00 0.00 0.00 0.00 0.01 0.01 0.02 0.02 0.01 0.01 0.01 0.01 0.01 0.01 0.01 0.01 0.01 0.01 0.01 0.02 0.02 0.03 0.03 0.03 0.04 0.04 0.05 0.05 0.06 0.08 0.09 0.12 0.18 0.24 0.28 0.28 0.24 0.21 0.19 0.17 0.14 0.13 0.14 0.13 0.12 0.11 0.11 0.14 0.22 0.29 0.35 0.36 0.35 0.39 0.45 0.48 0.52 0.54 0.56 0.61 0.72 0.85 0.94 0.94 0.84 0.80 0.77 0.72 0.63 0.55 0.47 0.41 0.36 0.33 0.34 0.41 0.45 0.43 0.40 0.38 0.37 0.35 0.33 0.32 0.29 0.27 0.25 0.23 0.20 0.16 0.12 0.09 0.06